{"data":{"norad_id":67812,"epoch":"2026-09-19T22:41:05.322336Z","epoch_age_seconds":114412,"freshness":"FRESH","line1":"1 67812U 26032R   26262.94520049  .00016073  00000+0  49902-3 0  9991","line2":"2 67812  97.2865  89.4100 0002084  87.6993 272.4488 15.33451337 34738","mean_motion":15.33451337,"eccentricity":0.0002084,"inclination_deg":97.2865,"raan_deg":89.41,"arg_perigee_deg":87.6993,"mean_anomaly_deg":272.4488,"bstar":0.00049902,"rev_number":3473,"period_min":93.905816588688,"perigee_km":464.09810107041,"apogee_km":466.95053910863,"semimajor_km":6843.6613200895,"source":"CELESTRAK","updated_at":"2026-09-20T09:00:43.664926Z"}}